Location: *
(2.5500°S, 65.9667°W)
Time: 05:45:12
(UTC+00:00)

Explorer 7 - Pass Details

Date: 22 April 2024
Orbit: 467 x 625 km, 50.3° (Epoch: 26 May)

Event Time Altitude Azimuth Distance (km) Brightness Sun altitude
Rises 23:08:07 0° 332° (NNW) 2,719 11.0 -11.8°
Reaches altitude 10° 23:10:28 10° 338° (NNW) 1,798 9.9 -12.3°
Maximum altitude 23:14:25 49° 53° (NE) 678 7.0 -13.3°
Enters shadow 23:16:37 22° 119° (ESE) 1,144 7.9 -13.8°
Drops below altitude 10° 23:18:10 10° 128° (SE) 1,712 - -14.2°
Sets 23:20:21 0° 134° (SE) 2,574 - -14.7°
